Date String (YYYY-MM-DD hh:mm:ss) UTC,Instrument flags,Ambient pressure (hPa),Sample flow (lpm),Bypass flow (lpm),Sample temperature (°C),Ambient temperature (°C),ASC tube jacket temperature (°C),LED temperature (°C),Box temperature (°C),Sample RH (%),Span deviation,Mass concentration (μg/m³),Mass concentration (μg/m³),Mass concentration (μg/m³)
DateTimeUTC,F1_M11,P_M11,Q1_M11,Q2_M11,T1_M11,T2_M11,T3_M11,T4_M11,T5_M11,U1_M11,ZSPAN_M11,X0_M11,X2_M11,X1_M11
2022-09-21 06:00:00,,0829.8,5.00,0.00,30.0,28.9,00.0,38.7,32.0,21.8,0000.0,0008.15,0002.70,0002.22
2022-09-21 06:01:00,,0829.8,5.01,0.00,30.1,29.0,00.0,38.7,32.0,21.7,0000.0,0007.51,0002.68,0002.23
2022-09-21 06:02:00,,0829.8,4.99,0.00,30.1,28.9,00.0,38.7,32.0,21.7,0000.0,0006.11,0002.69,0002.23
2022-09-21 06:03:00,,0829.8,5.01,0.00,30.1,27.8,00.0,38.7,32.0,21.7,0000.0,0005.43,0002.71,0002.24
2022-09-21 06:04:00,,0829.7,5.00,0.00,30.1,26.9,00.0,38.7,31.9,21.7,0000.0,0005.01,0002.72,0002.25
2022-09-21 06:05:00,,0829.7,4.99,0.00,30.0,27.0,00.0,38.6,31.8,21.7,0000.0,0004.90,0002.67,0002.24
2022-09-21 06:06:00,,0829.7,4.98,0.00,29.9,27.2,00.0,38.6,31.6,21.8,0000.0,0004.91,0002.69,0002.24
2022-09-21 06:07:00,,0829.8,5.00,0.00,29.9,27.5,00.0,38.6,31.6,21.9,0000.0,0004.55,0002.69,0002.23
2022-09-21 06:08:00,,0829.8,5.00,0.00,29.9,27.8,00.0,38.6,31.6,21.9,0000.0,0004.25,0002.66,0002.23
2022-09-21 06:09:00,,0829.7,5.00,0.00,29.9,28.0,00.0,38.6,31.7,21.9,0000.0,0004.31,0002.67,0002.23
2022-09-21 06:10:00,,0829.8,5.00,0.00,29.9,28.2,00.0,38.6,31.7,21.9,0000.0,0004.42,0002.69,0002.23
2022-09-21 06:11:00,,0829.8,5.00,0.00,29.9,28.3,00.0,38.6,31.8,21.9,0000.0,0004.36,0002.68,0002.22
2022-09-21 06:12:00,,0829.8,5.00,0.00,29.9,28.5,00.0,38.6,31.8,21.9,0000.0,0004.29,0002.69,0002.23
2022-09-21 06:13:00,,0829.8,4.99,0.00,29.9,28.6,00.0,38.6,31.8,21.8,0000.0,0004.07,0002.65,0002.22
2022-09-21 06:14:00,,0829.8,5.01,0.00,30.0,28.7,00.0,38.6,31.8,21.8,0000.0,0004.18,0002.64,0002.20
2022-09-21 06:15:00,,0829.8,4.99,0.00,30.0,28.7,00.0,38.7,31.9,21.7,0000.0,0004.21,0002.68,0002.20
2022-09-21 06:16:00,,0829.8,4.99,0.00,30.0,28.8,00.0,38.7,31.9,21.7,0000.0,0004.38,0002.71,0002.20
2022-09-21 06:17:00,,0829.7,5.02,0.00,30.0,28.9,00.0,38.7,32.0,21.6,0000.0,0004.47,0002.70,0002.21
2022-09-21 06:18:00,,0829.7,4.99,0.00,30.1,28.9,00.0,38.7,32.0,21.5,0000.0,0004.29,0002.69,0002.22
2022-09-21 06:19:00,,0829.8,5.00,0.00,30.1,28.9,00.0,38.7,32.0,21.5,0000.0,0004.36,0002.72,0002.23
2022-09-21 06:20:00,,0829.8,5.00,0.00,30.1,29.0,00.0,38.7,32.0,21.4,0000.0,0005.21,0002.76,0002.25
2022-09-21 06:21:00,,0829.8,4.99,0.00,30.1,28.8,00.0,38.8,32.1,21.4,0000.0,0006.24,0002.75,0002.26
2022-09-21 06:22:00,,0829.8,5.00,0.00,30.2,27.4,00.0,38.8,32.0,21.4,0000.0,0006.36,0002.80,0002.26
2022-09-21 06:23:00,,0829.8,5.02,0.00,30.1,26.9,00.0,38.7,31.9,21.4,0000.0,0006.67,0002.87,0002.25
2022-09-21 06:24:00,,0829.7,5.00,0.00,30.0,27.0,00.0,38.7,31.8,21.5,0000.0,0006.95,0002.96,0002.25
2022-09-21 06:25:00,,0829.8,4.99,0.00,30.0,27.3,00.0,38.7,31.7,21.6,0000.0,0006.94,0003.01,0002.27
2022-09-21 06:26:00,,0829.8,5.00,0.00,29.9,27.6,00.0,38.6,31.7,21.7,0000.0,0007.00,0003.04,0002.29
2022-09-21 06:27:00,,0829.8,5.00,0.00,29.9,27.8,00.0,38.6,31.7,21.7,0000.0,0007.64,0003.12,0002.31
2022-09-21 06:28:00,,0829.7,5.01,0.00,29.9,28.0,00.0,38.6,31.7,21.7,0000.0,0007.91,0003.20,0002.31
2022-09-21 06:29:00,,0829.7,4.99,0.00,29.9,28.2,00.0,38.6,31.7,21.7,0000.0,0008.08,0003.23,0002.30
2022-09-21 06:30:00,,0829.7,5.02,0.00,29.9,28.4,00.0,38.6,31.8,21.7,0000.0,0008.21,0003.27,0002.31
2022-09-21 06:31:00,,0829.7,5.00,0.00,29.9,28.5,00.0,38.6,31.8,21.6,0000.0,0008.10,0003.28,0002.29
2022-09-21 06:32:00,,0829.6,5.00,0.00,30.0,28.6,00.0,38.7,31.8,21.6,0000.0,0007.61,0003.27,0002.28
2022-09-21 06:33:00,,0829.6,5.00,0.00,30.0,28.7,00.0,38.7,31.9,21.6,0000.0,0007.56,0003.24,0002.27
2022-09-21 06:34:00,,0829.6,4.99,0.00,30.0,28.7,00.0,38.7,31.9,21.5,0000.0,0007.90,0003.23,0002.27
2022-09-21 06:35:00,,0829.7,5.01,0.00,30.0,28.8,00.0,38.7,31.9,21.5,0000.0,0008.80,0003.26,0002.26
2022-09-21 06:36:00,,0829.8,4.99,0.00,30.0,28.8,00.0,38.7,31.9,21.4,0000.0,0008.82,0003.27,0002.25
2022-09-21 06:37:00,,0829.8,5.01,0.00,30.1,28.9,00.0,38.7,32.0,21.4,0000.0,0008.79,0003.23,0002.24
2022-09-21 06:38:00,,0829.8,4.99,0.00,30.1,28.9,00.0,38.8,32.0,21.3,0000.0,0008.24,0003.18,0002.22
2022-09-21 06:39:00,,0829.8,4.99,0.00,30.1,29.0,00.0,38.8,32.0,21.3,0000.0,0008.27,0003.14,0002.22
2022-09-21 06:40:00,,0829.8,5.01,0.00,30.2,29.0,00.0,38.8,32.0,21.2,0000.0,0009.47,0003.15,0002.23
2022-09-21 06:41:00,,0829.8,4.99,0.00,30.2,29.0,00.0,38.8,32.1,21.1,0000.0,0010.21,0003.11,0002.21
2022-09-21 06:42:00,,0829.8,5.01,0.00,30.2,28.5,00.0,38.8,32.1,21.1,0000.0,0009.80,0003.05,0002.21
2022-09-21 06:43:00,,0829.8,4.99,0.00,30.2,27.2,00.0,38.8,32.0,21.0,0000.0,0009.83,0003.04,0002.20
2022-09-21 06:44:00,,0829.7,5.00,0.00,30.2,27.0,00.0,38.8,32.0,20.9,0000.0,0009.97,0003.10,0002.21
2022-09-21 06:45:00,,0829.7,5.00,0.00,30.1,27.1,00.0,38.7,31.8,21.0,0000.0,0009.49,0003.08,0002.22
2022-09-21 06:46:00,,0829.7,5.00,0.00,30.0,27.4,00.0,38.7,31.7,21.1,0000.0,0008.58,0002.98,0002.22
2022-09-21 06:47:00,,0829.8,5.00,0.00,30.0,27.7,00.0,38.7,31.7,21.2,0000.0,0008.54,0002.97,0002.22
2022-09-21 06:48:00,,0829.8,5.00,0.00,29.9,27.9,00.0,38.7,31.7,21.1,0000.0,0008.43,0002.96,0002.22
2022-09-21 06:49:00,,0829.8,4.99,0.00,29.9,28.1,00.0,38.7,31.7,21.1,0000.0,0008.53,0002.97,0002.22
2022-09-21 06:50:00,,0829.8,5.01,0.00,29.9,28.3,00.0,38.7,31.7,21.0,0000.0,0008.67,0002.99,0002.21
2022-09-21 06:51:00,,0829.8,4.98,0.00,30.0,28.4,00.0,38.7,31.8,20.8,0000.0,0007.28,0002.98,0002.21
2022-09-21 06:52:00,,0829.8,5.01,0.00,30.0,28.6,00.0,38.7,31.8,20.7,0000.0,0007.39,0002.99,0002.23
2022-09-21 06:53:00,,0829.8,4.99,0.00,30.0,28.6,00.0,38.7,31.9,20.8,0000.0,0007.54,0003.07,0002.26
2022-09-21 06:54:00,,0829.7,4.99,0.00,30.0,28.7,00.0,38.7,31.9,20.7,0000.0,0008.22,0003.14,0002.30
2022-09-21 06:55:00,,0829.7,5.00,0.00,30.0,28.8,00.0,38.7,31.9,20.4,0000.0,0008.19,0003.15,0002.33
2022-09-21 06:56:00,,0829.7,5.00,0.00,30.1,28.8,00.0,38.7,32.0,20.4,0000.0,0008.26,0003.18,0002.37
2022-09-21 06:57:00,,0829.8,5.00,0.00,30.1,28.9,00.0,38.8,32.0,20.4,0000.0,0008.27,0003.22,0002.40
2022-09-21 06:58:00,,0829.6,5.00,0.00,30.1,28.9,00.0,38.8,32.0,20.3,0000.0,0008.53,0003.27,0002.43
2022-09-21 06:59:00,,0829.6,5.01,0.00,30.1,29.0,00.0,38.8,32.0,20.2,0000.0,0008.88,0003.32,0002.48
